Hunter Education Courses

Listed by Date


Student Classes

Student Classes (282)
Updated 5:03 p.m. Friday, August 28, 2015
Scheduled DateTimeCityPhoneNote
Sat Aug 29, 2015 1:00 PM COMANCHE (325) 885-2349 (CONT ON 8/30)
Sat Aug 29, 2015 1:30 PM COLORADO CITY (325) 207-7894  
Sat Aug 29, 2015 2:00 PM CENTERVILLE (936) 855-9079  
Sat Aug 29, 2015 4:00 PM BAYTOWN (832) 866-0112 (CONT 8-30)
Sat Aug 29, 2015 7:00 AM N RICHLAND HLS (940) 567-1422 (morrowjw71@yahoo.com)
Sat Aug 29, 2015 7:30 AM IRVING (972) 721-2547 (cdjones@cityofirving.org MUST PRE REGISTER)
Sat Aug 29, 2015 8:00 AM BALLINGER (325) 365-6358  
Sat Aug 29, 2015 8:00 AM DENTON (940) 391-9782  
Sat Aug 29, 2015 8:00 AM DIANA (903) 399-8450 (BASIC)
Sat Aug 29, 2015 8:00 AM EASTLAND (254) 442-3811  
Sat Aug 29, 2015 8:00 AM ERA (325) 529-6592 (Eula ISD 6040 Fm 603 CLyde Texas 79510)
Sat Aug 29, 2015 8:00 AM GRANBURY (817) 229-0519 (Call to reserve your spot)
Sat Aug 29, 2015 8:00 AM HENDERSON (903) 595-4567 (@RUSK COUNTY EXTENSION OFFICE 115 FORDALL)
Sat Aug 29, 2015 8:00 AM PALMVIEW (000) 000-0000 (czamarron1981@gmail.com @Palmview Public Safety Building, )
Sat Aug 29, 2015 8:00 AM PALMVIEW (956) 257-4837 (@PALMVIEW BOYS & GIRLS CLUB)
Sat Aug 29, 2015 8:00 AM ROBSTOWN (361) 944-8844 (@ANNAVILLE VOL FIRE DEPT 5242 WARE RD BEHIND SAMS BBQ)
Sat Aug 29, 2015 8:00 AM RUSK (281) 622-7666 (getoutdoors15@gmail.com CALL OR EMAIL TO PRE REGISTER)
Sat Aug 29, 2015 8:00 AM SEGUIN (210) 535-4620 (huntmasters.317@gmail.com)
Sat Aug 29, 2015 8:00 AM SHEPHERD (936) 425-1102  
Sat Aug 29, 2015 8:00 AM SPRING (281) 658-3303 (karlharroff@yahoo.com)
Sat Aug 29, 2015 8:00 AM THE WOODLANDS (281) 298-4400 (@ACADEMY)
Sat Aug 29, 2015 8:30 AM EL PASO (915) 765-1545  
Sat Aug 29, 2015 8:30 AM FRISCO (214) 213-2729 (CLASS WILL BE HELD IN PROSPER, TX. E-MAIL RJACKSON@TEMPOFS.C)
Sat Aug 29, 2015 8:30 AM VIDOR (409) 782-2672  
Sat Aug 29, 2015 9:00 AM ANSON (940) 564-6077 ($20 @ ANSON HS AG BLDG; PRE-REGISTRATION REQUIRED)
Sat Aug 29, 2015 9:00 AM AUSTIN (000) 000-0000 (austinhuntered@gmail.com)
Sat Aug 29, 2015 9:00 AM BUDA (512) 262-0405 (@CABELAS CAN ALSO CALL 512-662-6790)
Sat Aug 29, 2015 9:00 AM CEDAR PARK (512) 426-1113 (@ACADEMY 1104 C BAR RANCH TRAIL)
Sat Aug 29, 2015 9:00 AM COLUMBUS (281) 750-9184 (texag6554@gmail.com)
Sat Aug 29, 2015 9:00 AM CONROE (936) 588-3793 (LIVE FIRE SESSION AT CREEKWOOD SHOOTING SPORTS)
Sat Aug 29, 2015 9:00 AM LEAGUE CITY (281) 337-9700 (@WALMART REGISTER WITH SPORTING GOODS)
Sat Aug 29, 2015 9:00 AM PECOS (432) 664-9997  
Sat Aug 29, 2015 9:00 AM PORT LAVACA (361) 649-3302 (BASIC)
Sat Aug 29, 2015 9:00 AM ROUND ROCK (512) 260-2744 (BASIC 6 HOUR COURSE AT ST RICHARD'S EPISCOPAL CHURCH)
Sat Aug 29, 2015 9:00 AM SAN ANTONIO (210) 408-5400 (@ACADEMY #125)
Sat Aug 29, 2015 9:00 AM SHERMAN (903) 465-4751 (@Harber Wildlife Museum)
Sat Aug 29, 2015 9:00 AM TYLER (903) 571-0151 (@ NATURE CENTER)
Sat Aug 29, 2015 9:00 AM WACO (903) 530-4338 (steve@steverussell.org)
Sat Aug 29, 2015 9:00 AM WAXAHACHIE (214) 616-7241 (www.texashuntersafety.com)
Sat Aug 29, 2015 9:00 AM WEATHERFORD (817) 598-2806 (TO REGISTER WEATHERFORD COMMUNITY EDUCATION/SAFETY @BOWIE L)
Sat Aug 29, 2015 10:00 AM BEDFORD (817) 443-2825 (@AIRPORT YMCA 3524 CENTRAL DRIVE)
Sat Aug 29, 2015 10:00 AM HUMBLE (281) 964-4760  
Sat Aug 29, 2015 10:00 AM PALMHURST (956) 207-2428  
Sat Aug 29, 2015 10:00 AM PHARR (956) 457-5418 (@POINT BLANK SPORTING GOODS & GUN RANGE)
Sat Aug 29, 2015 10:00 AM SANTA ELENA (956) 330-7666 (ochoaeric08@yahoo.com)
Sat Aug 29, 2015 12:00 PM SAN ANTONIO (000) 000-0000 (txhuntered@yahoo.com @BASS PRO)
Sun Aug 30, 2015 1:30 PM TEMPLE (254) 760-2087  
Sun Aug 30, 2015 8:00 AM COLLEGE STATION (979) 764-3486 (https://rectrac.cstx.gov)
Sun Aug 30, 2015 8:00 AM CYPRESS (281) 373-0232  
Sun Aug 30, 2015 8:00 AM FRIENDSWOOD (281) 648-7468  
Sun Aug 30, 2015 9:00 AM FORT WORTH (817) 605-4000  
Sun Aug 30, 2015 10:00 AM PENITAS (956) 207-2428  
Sat Sep 5, 2015 8:00 AM COLDSPRING (936) 827-5009 (countrydad4him@gmail.com @1011 State Highway 150)
Sat Sep 5, 2015 8:00 AM LUFKIN (936) 635-4416 (Call to register @Agriculture Extension Office on East Loop )
Sat Sep 5, 2015 8:00 AM SANDERSON (817) 357-2158 (@County Community Room)
Sat Sep 5, 2015 9:00 AM ALVIN (281) 585-2825 (@WALMART REGISTER WITH SPORTING GOODS)
Sat Sep 5, 2015 9:00 AM BRECKENRIDGE (936) 707-1974  
Sat Sep 5, 2015 9:00 AM BUDA (512) 262-0405 (@CABELAS CAN ALSO CALL 512-662-6790)
Sat Sep 5, 2015 9:00 AM CEDAR PARK (512) 426-1113 (@ACADEMY 1104 C BAR RANCH TRAIL)
Sat Sep 5, 2015 9:00 AM DECATUR (940) 393-6402 (@FOSSIL POINTE SPORTING GROUNDS)
Sat Sep 5, 2015 10:00 AM PALMHURST (956) 207-2428  
Sat Sep 5, 2015 12:00 PM SAN ANTONIO (000) 000-0000 (txhuntered@yahoo.com @BASS PRO)
Sun Sep 6, 2015 8:00 AM ELGIN (512) 285-9156 (@ELGIN HS AG BLDG)
Sun Sep 6, 2015 8:00 AM ROBSTOWN (361) 944-8844 (@ANNAVILLE VOL FIRE DEPT 5242 WARE RD BEHIND SAMS BBQ)
Sun Sep 6, 2015 8:30 AM ALLEN (214) 509-4750  
Sun Sep 6, 2015 8:30 AM ALLEN (972) 658-0490 (@Allen Parks Bldg)
Sun Sep 6, 2015 10:00 AM PENITAS (956) 207-2428  
Wed Sep 9, 2015 6:00 PM CORPUS CHRISTI (361) 853-8644  
Sat Sep 12, 2015 3:00 PM JASPER (409) 379-4831 (RSVP REQUIRED @JASPER HS AG SHOP)
Sat Sep 12, 2015 7:30 AM ATHENS (903) 676-2277  
Sat Sep 12, 2015 7:30 AM HARKER HEIGHTS (254) 699-1306  
Sat Sep 12, 2015 8:00 AM AUSTIN (512) 252-2928 (www.clearshotaustin.com/HunterEd)
Sat Sep 12, 2015 8:00 AM MCGREGOR (254) 498-4851 (@MCGREGOR GENERAL STORE)
Sat Sep 12, 2015 8:00 AM RUSK (903) 683-2180 (getoutdoors15@gmail.com CALL OR EMAIL TO PRE REGISTER)
Sat Sep 12, 2015 8:00 AM SAN ANGELO (325) 469-3787  
Sat Sep 12, 2015 8:00 AM TEXARKANA (903) 831-2460 (@ ACADEMY)
Sat Sep 12, 2015 8:00 AM WICHITA FALLS (940) 692-1141 (CALL AFTER 12:30PM)
Sat Sep 12, 2015 8:30 AM FREDERICKSBURG (830) 997-7182 (CONT 9-13 (130P-330P) ASK FOR CAROL)
Sat Sep 12, 2015 8:30 AM SOUR LAKE (409) 782-2672  
Sat Sep 12, 2015 9:00 AM ABILENE (325) 733-4369  
Sat Sep 12, 2015 9:00 AM AMARILLO (806) 373-7572  
Sat Sep 12, 2015 9:00 AM CARTHAGE (903) 530-4338 (steve@steverussell.org @PANOLA COLLEGE)
Sat Sep 12, 2015 9:00 AM CEDAR PARK (512) 426-1113 (@ACADEMY 1104 C BAR RANCH TRAIL)
Sat Sep 12, 2015 9:00 AM LANCASTER (972) 218-3700 (Parks & Rec Cntr Bldg 1700 Veteran's Memorial Pkwy)
Sat Sep 12, 2015 9:00 AM ROCKPORT (361) 229-9109 (CONT 09/13)
Sat Sep 12, 2015 9:00 AM SAN ANTONIO (000) 000-0000 (jthompson6@satx.rr.com)
Sat Sep 12, 2015 9:00 AM SWEENY (713) 553-3895 (texashuntereducation@gmail.com)
Sat Sep 12, 2015 10:00 AM ALLEN (972) 247-7382 (CONT 9-13)
Sat Sep 12, 2015 10:00 AM CORPUS CHRISTI (000) 000-0000 (paulssilva60@gmail.com @NICHOLS GUNS 10525 LEOPARD ST)
Sat Sep 12, 2015 10:00 AM ELSA (956) 207-2428  
Sat Sep 12, 2015 10:00 AM ELSA (956) 380-0436 (at Walmart)
Sat Sep 12, 2015 10:00 AM FAIRFIELD (903) 388-3605 (sam.anderson@tpwd.texas.gov)
Sat Sep 12, 2015 10:00 AM KATY (713) 569-6791  
Sat Sep 12, 2015 11:00 AM SAN ANTONIO (000) 000-0000 (richardhite@sbcglobal.net @SAN ANTONIO GUN CLUB)
Sat Sep 12, 2015 8:30 AM LAKE JACKSON (713) 269-8229 (@ Sea Center Texas; Pre-register by phone or email psdaytpwd)
Sun Sep 13, 2015 8:00 AM HOUSTON (281) 458-3038 (@BASS PRO SHOP)
Sun Sep 13, 2015 8:30 AM ALLEN (214) 509-4750  
Sun Sep 13, 2015 8:30 AM ARLINGTON (817) 375-3210 (@ACADEMY)
Sun Sep 13, 2015 9:00 AM AUSTIN (512) 388-5300 (INCLUDE LIVE FIRE OPTION; texasbuckeye1@yahoo.com)
Sun Sep 13, 2015 9:00 AM CHANNELVIEW (281) 683-2450 (mrnarcisse@aol.com)
Sun Sep 13, 2015 12:00 PM FORT WORTH (817) 467-4619 (@ON TARGET)
Sun Sep 13, 2015 12:00 PM SAN ANTONIO (000) 000-0000 (kmcclelland74@gmail.com)
Mon Sep 14, 2015 6:00 PM HOUSTON (281) 481-0227 (CONT 9/15; @SAGEMONT CHURCH 11323 HUGHES RD)
Tue Sep 15, 2015 9:00 AM BOERNE (210) 213-7666  
Sat Sep 19, 2015 1:00 PM ROUND ROCK (214) 802-1199 (@Grace Presbyterian Church on 1705 Gattis School Road)
Sat Sep 19, 2015 8:00 AM CONROE (936) 441-4040 (All fees & lunch paid by R.M.E.F)
Sat Sep 19, 2015 8:00 AM GARWOOD (979) 733-4143  
Sat Sep 19, 2015 8:00 AM GROESBECK (254) 645-0679  
Sat Sep 19, 2015 8:00 AM LA GRANGE (979) 968-5831 (bobby.eichler@tpwd.texas.gov class will be held at Fayette )
Sat Sep 19, 2015 8:00 AM LIVINGSTON (936) 328-6718 (blindhog01@gmail.com @602 E. Church. In the 4H building in )
Sat Sep 19, 2015 8:00 AM THE WOODLANDS (281) 298-4400 (@ACADEMY; EMAIL storedirector105@academy.com)
Sat Sep 19, 2015 8:00 AM WACO (254) 405-9391 (@ MCC 254-299-8888 CALL TO PRE-REGISTER 8:00 AM-4:00 PM)
Sat Sep 19, 2015 8:30 AM NEWTON (409) 379-4831 (RSVP REQUIRED @HOWARD CIVIC CENTER)
Sat Sep 19, 2015 9:00 AM BOERNE (000) 000-0000 (INFO: dan.griffin@wnsrange.com RGSTR: wnsrange.com/images/w)
Sat Sep 19, 2015 9:00 AM BUDA (512) 262-0405 (@CABELAS CAN ALSO CALL 512-662-6790)
Sat Sep 19, 2015 9:00 AM BURLESON (817) 659-8705 (PRE-REGISTRATION REQUIRED; hankinscliff@gmail.com TO REGISTE)
Sat Sep 19, 2015 9:00 AM CEDAR PARK (512) 426-1113 (@ACADEMY 1104 C BAR RANCH TRAIL)
Sat Sep 19, 2015 9:00 AM DEER PARK (832) 498-1609 (CONT 9-20)
Sat Sep 19, 2015 9:00 AM FORT WORTH (817) 236-3158 (CABELA'S FORT WORTH STORE, ALL CLASSES START AT 9:00 AM)
Sat Sep 19, 2015 9:00 AM GRAPEVINE (972) 255-3310 (@BASS PRO)
Sat Sep 19, 2015 9:00 AM PEARLAND (281) 412-8915 ( @ PEARLAND PARKS AND REC; 4141 BAILEY RD)
Sat Sep 19, 2015 9:00 AM SAN ANTONIO (000) 000-0000 (jthompson6@satx.rr.com)
Sat Sep 19, 2015 9:00 AM TOMBALL (281) 516-4120 (@ACADEMY)
Sat Sep 19, 2015 9:00 AM WHARTON (281) 750-9184 (texag6554@gmail.com @WHARTON GUNS & GEAR)
Sat Sep 19, 2015 10:00 AM CALDWELL (713) 553-9458 (dowlingrd@aol.com)
Sat Sep 19, 2015 10:00 AM PALMHURST (956) 207-2428  
Sat Sep 19, 2015 12:00 PM SAN ANTONIO (000) 000-0000 (txhuntered@yahoo.com @BASS PRO)
Sun Sep 20, 2015 8:00 AM EDNA (361) 782-2270  
Sun Sep 20, 2015 9:00 AM FORT WORTH (817) 605-4000 (jimtxtx@gmail.com @ACADEMY)
Sun Sep 20, 2015 9:30 AM TOMBALL (281) 516-4120 (@ACADEMY)
Sun Sep 20, 2015 12:00 PM SAN ANTONIO (000) 000-0000 (txhuntered@yahoo.com @BASS PRO)
Thu Sep 24, 2015 8:00 AM HENDERSON (903) 646-5243  
Fri Sep 25, 2015 6:00 PM CORPUS CHRISTI (361) 980-1190 (-9P CONT 9-26 (8A-12P) @THE SHARP SHOOTERS)
Sat Sep 26, 2015 7:30 AM HARKER HEIGHTS (254) 699-1306  
Sat Sep 26, 2015 8:00 AM CLEBURNE (817) 357-2158  
Sat Sep 26, 2015 8:00 AM EDNA (361) 649-0464 (CONT 9/27; LEAVE A CLEAR MESSAGE AND NUMBER TO RETURN YOUR C)
Sat Sep 26, 2015 8:00 AM EDOM (903) 852-5223 (FIRST BAPTIST CHURCH OF EDOM)
Sat Sep 26, 2015 8:00 AM EVADALE (409) 489-6169  
Sat Sep 26, 2015 8:00 AM RUSK (903) 683-2180 (getoutdoors15@gmail.com CALL OR EMAIL TO PRE REGISTER)
Sat Sep 26, 2015 8:00 AM TEAGUE (903) 879-5786 (CONT 9-27 tcannon@teagueisd.org @TEAGUE HS AG BLDG)
Sat Sep 26, 2015 8:30 AM LAKE JACKSON (979) 415-2700 (@LAKE JACKSON POLICE DEPT-5A OAK DRIVE)
Sat Sep 26, 2015 9:00 AM CEDAR PARK (512) 426-1113 (@ACADEMY 1104 C BAR RANCH TRAIL)
Sat Sep 26, 2015 9:00 AM FRIENDSWOOD (281) 480-6134 (@WALMART REGISTER WITH SPORTING GOODS)
Sat Sep 26, 2015 9:00 AM TOMBALL (281) 516-4120 (@ACADEMY)
Sat Sep 26, 2015 9:00 AM WAXAHACHIE (214) 616-7241 (www.texashuntersafety.com)
Sat Sep 26, 2015 10:00 AM ALLEN (972) 247-7382 (CONT 9-27)
Sat Sep 26, 2015 12:00 PM PFLUGERVILLE (512) 252-2928 (www.clearshotaustin.com/HunterEd)
Sun Sep 27, 2015 8:00 AM DALLAS (214) 444-8821 (www.education.dallasarms.com)
Sun Sep 27, 2015 8:30 AM ALLEN (214) 509-4750  
Sun Sep 27, 2015 8:30 AM ARLINGTON (817) 375-8210 (@ACADEMY)
Sun Sep 27, 2015 9:00 AM AUSTIN (512) 388-5300 (INCLUDE LIVE FIRE OPTION; texasbuckeye1@yahoo.com)
Sun Sep 27, 2015 9:00 AM HOUSTON (281) 683-2450 (BASIC)
Sun Sep 27, 2015 9:30 AM TOMBALL (281) 516-4120 (@ACADEMY)
Mon Sep 28, 2015 6:00 PM LINDEN (903) 756-7172 (CONT 9-29 6P-9:30 P EA EVE @LINDEN KILDARE HS AG BLDG)
Tue Sep 29, 2015 8:30 AM MARSHALL (903) 935-8413 (Matt.Garrett@ag.tamu.edu)
Fri Oct 2, 2015 5:30 PM LAKE JACKSON (979) 415-2700 (@LAKE JACKSON POLICE DEPT-5A OAK DRIVE)
Sat Oct 3, 2015 7:30 AM LA MARQUE (409) 938-3537 (CLASS WILL BE HELD AT HIGHLAND BAPTIST CHURCH)
Sat Oct 3, 2015 8:00 AM JACKSBORO (940) 567-2001 (@JACK CO LAW ENFORCEMENT CENTER jackcountyboyd@rocketmail.c)
Sat Oct 3, 2015 8:00 AM ROBSTOWN (361) 944-8844 (@ANNAVILLE VOL FIRE DEPT 5242 WARE RD BEHIND SAMS BBQ)
Sat Oct 3, 2015 8:00 AM SULPHUR SPRGS (940) 736-8158  
Sat Oct 3, 2015 8:00 AM THE WOODLANDS (281) 298-4400 (@ACADEMY; email storedirector105@academy.com)
Sat Oct 3, 2015 8:30 AM ALLEN (214) 509-4750  
Sat Oct 3, 2015 9:00 AM BUDA (512) 627-7723 (@Buda Family YMCA)
Sat Oct 3, 2015 9:00 AM GRAPEVINE (972) 255-3310 (@BASS PRO)
Sat Oct 3, 2015 9:00 AM LEAGUE CITY (281) 337-9700 (AT WALMART REGISTER IN SPORTING GOODS)
Fri Oct 9, 2015 6:00 PM CORPUS CHRISTI (361) 980-1190 (-9P CONT 10-10 (8A-12P) @THE SHARP SHOOTERS)
Sat Oct 10, 2015 7:30 AM ATHENS (903) 676-2277  
Sat Oct 10, 2015 8:00 AM CORRIGAN (903) 393-3273  
Sat Oct 10, 2015 8:00 AM THE WOODLANDS (281) 298-4400 (@ACADEMY; EMAIL storedirector105@academy.com)
Sat Oct 10, 2015 8:30 AM ALLEN (214) 509-4750  
Sat Oct 10, 2015 8:30 AM TOMBALL (281) 357-3676 (AT LONE STAR COLLEGE TOMBALL; CONT ED DEPT; OR CALL 281-787-)
Sat Oct 10, 2015 9:00 AM AUSTIN (512) 633-0164 (hunters.ed@moonandback.org)
Sat Oct 10, 2015 9:00 AM BUDA (512) 262-0405 (@CABELAS CAN ALSO CALL 512-662-6790)
Sat Oct 10, 2015 9:00 AM BUDA (512) 627-7723 (@Buda Family YMCA)
Sat Oct 10, 2015 9:00 AM CEDAR PARK (512) 426-1113 (@ACADEMY 1104 C BAR RANCH TRAIL)
Sat Oct 10, 2015 9:00 AM SAN ANTONIO (000) 000-0000 (jthompson6@satx.rr.com)
Sat Oct 10, 2015 9:00 AM TOMBALL (281) 516-4120 (@ACADEMY)
Sat Oct 10, 2015 12:30 PM SHERMAN (903) 816-1082 (@ GANDER MTN; PRE-REGISTRATION REQUIRED PLEASE CALL)
Sun Oct 11, 2015 8:30 AM ALLEN (214) 509-4750  
Sun Oct 11, 2015 8:30 AM ARLINGTON (817) 375-3210 (@ACADEMY)
Sun Oct 11, 2015 9:00 AM AUSTIN (512) 388-5300 (INCLUDE LIVE FIRE OPTION; texasbuckeye1@yahoo.com)
Sun Oct 11, 2015 9:30 AM TOMBALL (281) 516-4120 (@ACADEMY)
Sun Oct 11, 2015 12:00 PM FORT WORTH (817) 467-4619 (@ON TARGET)
Sun Oct 11, 2015 12:00 PM SAN ANTONIO (000) 000-0000 (kmcclelland74@gmail.com)
Wed Oct 14, 2015 6:00 PM CORPUS CHRISTI (361) 853-8644  
Sat Oct 17, 2015 8:00 AM AUSTIN (512) 262-0405  
Sat Oct 17, 2015 8:00 AM LA COSTE (210) 827-1898 (@ALAMO MUZZLELOADING GUN CLUB)
Sat Oct 17, 2015 8:00 AM ROBSTOWN (361) 944-8844 (@ANNAVILLE VOL FIRE DEPT 5242 WARE RD BEHIND SAMS BBQ)
Sat Oct 17, 2015 8:00 AM WICHITA FALLS (940) 692-1141 (CALL AFTER 12:30PM)
Sat Oct 17, 2015 8:30 AM NEWTON (409) 379-4831 (RSVP REQUIRED @HOWARD CIVIC CENTER)
Sat Oct 17, 2015 9:00 AM ALVIN (281) 585-2825 (@ WALMART REGISTER IN SPORTING GOODS)
Sat Oct 17, 2015 9:00 AM CEDAR PARK (512) 426-1113 (@ACADEMY 1104 C BAR RANCH TRAIL)
Sat Oct 17, 2015 9:00 AM DEER PARK (832) 498-1609 (CONT 10-18)
Sat Oct 17, 2015 10:00 AM ALLEN (972) 247-7382 (CONT 10-18)
Sat Oct 17, 2015 10:00 AM CALDWELL (713) 553-9458 (dowlingrd@aol.com)
Sat Oct 17, 2015 10:00 AM KATY (713) 569-6791  
Sat Oct 17, 2015 10:00 AM PALMHURST (956) 207-2428  
Sat Oct 17, 2015 12:00 PM SAN ANTONIO (000) 000-0000 (txhuntered@yahoo.com @BASS PRO)
Sun Oct 18, 2015 1:00 PM TEMPLE (254) 760-2087 (PRE REGISTRATION REQUIRED wcmarek1@gmail.com)
Sun Oct 18, 2015 7:30 AM ATHENS (903) 676-2277  
Sun Oct 18, 2015 9:00 AM AUSTIN (000) 000-0000 (austinhuntered@gmail.com)
Sun Oct 18, 2015 9:00 AM SAN ANTONIO (210) 831-7795 (For more information visit: www.stone-wall-services.com)
Sat Oct 24, 2015 7:30 AM LA MARQUE (409) 938-3537 (CLASS WILL BE HELD AT HIGHLAND BAPTIST CHURCH)
Sat Oct 24, 2015 8:00 AM AUSTIN (512) 262-0405  
Sat Oct 24, 2015 8:00 AM TEAGUE (903) 879-5786 (CONT 10-25 tcannon@teagueisd.org @TEAGUE HS AG BLDG)
Sat Oct 24, 2015 8:00 AM TERRELL (972) 824-8655 (OR CALL 214-535-8126; @ AMERICAN NATL BANK TERRELL; MUST PRE)
Sat Oct 24, 2015 8:00 AM THE WOODLANDS (281) 298-4400 (@ACADEMY; EMAIL storedirector105@academy.com)
Sat Oct 24, 2015 8:30 AM FREDERICKSBURG (830) 997-7182 (CONT 10-25 (130P-330P) ASK FOR CAROL)
Sat Oct 24, 2015 8:30 AM GOLIAD (361) 649-0464 (CONT 10/25; LEAVE A CLEAR MESSAGE & NUMBER)
Sat Oct 24, 2015 9:00 AM CEDAR PARK (512) 426-1113 (@ACADEMY 1104 C BAR RANCH TRAIL)
Sat Oct 24, 2015 9:00 AM HOUSTON (281) 481-0227 (@ SAGEMONT CHURCH, 11323 HUGHES RD)
Sat Oct 24, 2015 9:00 AM TOMBALL (281) 516-4120 (@ACADEMY)
Sat Oct 24, 2015 9:00 AM WAXAHACHIE (214) 616-7241 (www.texashuntersafety.com)
Sat Oct 24, 2015 10:00 AM GARLAND (972) 270-8688 (@BASS PRO SHOP)
Sat Oct 24, 2015 8:30 AM LAKE JACKSON (713) 269-8229 (@ Sea Center Texas; Pre-register by phone or email psdaytpwd)
Sun Oct 25, 2015 8:30 AM ARLINGTON (817) 375-3210 (@ACADEMY)
Sun Oct 25, 2015 9:00 AM AUSTIN (512) 388-5300 (INCLUDE LIVE FIRE OPTION)
Sun Oct 25, 2015 9:00 AM HOUSTON (281) 683-2450 (BASIC)
Sun Oct 25, 2015 9:30 AM TOMBALL (281) 516-4120 (@ACADEMY)
Sun Oct 25, 2015 10:00 AM GARLAND (972) 270-8688 (@ BASS PRO SHOPS)
Fri Oct 30, 2015 5:30 PM LAKE JACKSON (979) 415-2700 (@LAKE JACKSON POLICE DEPT-5A OAK DRIVE)
Sat Oct 31, 2015 7:30 AM ATHENS (903) 676-2277  
Sat Oct 31, 2015 8:00 AM AUSTIN (512) 252-2928 (www.clearshotaustin.com/HunterEd)
Sat Oct 31, 2015 9:00 AM BUDA (512) 262-0405 (@CABELAS CAN ALSO CALL 512-662-6790)
Sat Oct 31, 2015 9:00 AM FORT WORTH (817) 236-3158 (@CABELLA'S)
Sat Oct 31, 2015 9:00 AM PEARLAND (281) 412-8915 (@PEARLAND PARKS & REC; 4141 BAILEY RD)
Sat Nov 7, 2015 8:00 AM AUSTIN (512) 262-0405  
Sat Nov 7, 2015 9:00 AM BUDA (512) 627-7723 (@Buda Family YMCA)
Sat Nov 7, 2015 9:00 AM CEDAR PARK (512) 426-1113 (@ACADEMY 1104 C BAR RANCH TRAIL)
Sat Nov 7, 2015 9:00 AM TOMBALL (281) 516-4120 (@ACADEMY)
Sat Nov 7, 2015 12:00 PM SAN ANTONIO (000) 000-0000 (txhuntered@yahoo.com @BASS PRO)
Sun Nov 8, 2015 9:00 AM SAN ANTONIO (000) 000-0000 (jthompson6@satx.rr.com)
Sun Nov 8, 2015 12:00 PM SAN ANTONIO (000) 000-0000 (kmcclelland74@gmail.com)
Mon Nov 9, 2015 6:00 PM KERRVILLE (830) 377-2620 (CONT 11-10 (6P-10P BOTH DAYS) @HILL COUNTRY SHOOTING SPORTS)
Wed Nov 11, 2015 6:00 PM CORPUS CHRISTI (361) 853-8644  
Fri Nov 13, 2015 6:00 PM CORPUS CHRISTI (361) 980-1190 (-9P CONT 11-14 (8A-12P) @THE SHARP SHOOTERS)
Sat Nov 14, 2015 8:00 AM PFLUGERVILLE (512) 252-2928 (www.clearshotaustin.com/HunterEd)
Sat Nov 14, 2015 9:00 AM AUSTIN (512) 633-0164 (hunters.ed@moonandback.org)
Sat Nov 14, 2015 9:00 AM BUDA (512) 262-0405 (@CABELAS CAN ALSO CALL 512-662-6790)
Sat Nov 14, 2015 9:00 AM DEER PARK (832) 498-1609 (CONT 11-15)
Sat Nov 14, 2015 9:00 AM FORT WORTH (817) 236-3158 (CABELA'S FORT WORTH STORE, ALL CLASSES START AT 9:00 AM)
Sat Nov 14, 2015 9:00 AM TOMBALL (281) 516-4120 (@ACADEMY)
Sat Nov 14, 2015 10:00 AM ALLEN (972) 247-7382 (CONT 11-15)
Sat Nov 14, 2015 10:00 AM CALDWELL (713) 553-9458 (dowlingrd@aol.com)
Sat Nov 14, 2015 10:00 AM KATY (713) 569-6791  
Sat Nov 14, 2015 11:00 AM SAN ANTONIO (000) 000-0000 (richardhite@sbcglobal.net @SAN ANTONIO GUN CLUB)
Sun Nov 15, 2015 8:30 AM ARLINGTON (817) 375-3210 (@ACADEMY)
Sun Nov 15, 2015 12:00 PM FORT WORTH (817) 467-4619 (@ON TARGET)
Sat Nov 21, 2015 7:30 AM ATHENS (903) 676-2277  
Sat Nov 21, 2015 7:30 AM LA MARQUE (409) 938-3537 (CLASS WILL BE HELD AT HIGHLAND BAPTIST CHURCH)
Sat Nov 21, 2015 8:00 AM AUSTIN (512) 262-0405  
Sat Nov 21, 2015 9:00 AM GRAPEVINE (972) 255-3310 (@BASS PRO)
Sat Nov 21, 2015 9:00 AM TOMBALL (281) 516-4120 (@ACADEMY)
Sun Nov 22, 2015 9:30 AM TOMBALL (281) 516-4120 (@ACADEMY)
Sat Nov 28, 2015 9:00 AM BUDA (512) 262-0405 (@CABELAS CAN ALSO CALL 512-662-6790)
Tue Dec 1, 2015 6:00 PM KERRVILLE (830) 377-2620 (CONT 12-3 (6P-10P BOTH DAYS) @HILL COUNTRY SHOOTING SPORTS )
Sat Dec 5, 2015 8:00 AM AUSTIN (512) 262-0405  
Sat Dec 5, 2015 9:00 AM CEDAR PARK (512) 426-1113 (@ACADEMY 1104 C BAR RANCH TRAIL)
Sat Dec 5, 2015 9:00 AM TOMBALL (281) 516-4120 (@ACADEMY)
Sun Dec 6, 2015 9:30 AM TOMBALL (281) 516-4120 (@ACADEMY)
Wed Dec 9, 2015 6:00 PM CORPUS CHRISTI (361) 853-8644  
Wed Dec 9, 2015 7:30 AM BROWNFIELD (512) 923-3509  
Fri Dec 11, 2015 6:00 PM CORPUS CHRISTI (361) 980-1190 (-9P CONT 12-12 (8A-12P) @THE SHARP SHOOTERS)
Sat Dec 12, 2015 7:30 AM ATHENS (903) 676-2277  
Sat Dec 12, 2015 8:30 AM ALLEN (214) 509-4750  
Sat Dec 12, 2015 9:00 AM BUDA (512) 262-0405 (@CABELAS CAN ALSO CALL 512-662-6790)
Sat Dec 12, 2015 9:00 AM DEER PARK (832) 498-1609 (CONT 12-13-15)
Sat Dec 12, 2015 9:00 AM SAN ANTONIO (000) 000-0000 (jthompson6@satx.rr.com)
Sat Dec 12, 2015 9:00 AM TOMBALL (281) 516-4120 (@ACADEMY)
Sat Dec 12, 2015 10:00 AM ALLEN (972) 247-7382 (CONT 12-13-15)
Sat Dec 12, 2015 11:00 AM SAN ANTONIO (000) 000-0000 (richardhite@sbcglobal.net @SAN ANTONIO GUN CLUB)
Sun Dec 13, 2015 9:30 AM TOMBALL (281) 516-4120 (@ACADEMY)
Sun Dec 13, 2015 12:00 PM FORT WORTH (817) 467-4619 (@ON TARGET)
Sat Dec 19, 2015 9:00 AM BUDA (512) 262-0405 (@CABELAS CAN ALSO CALL 512-662-6790)
Sat Dec 19, 2015 10:00 AM CALDWELL (713) 553-9458 (dowlingrd@aol.com)
Sat Jan 2, 2015 9:00 AM CEDAR PARK (512) 426-1113 (@ACADEMY 1104 C BAR RANCH TRAIL)
Wed Jan 6, 2016 6:00 PM CORPUS CHRISTI (361) 853-8644  
Sun Jan 10, 2016 9:30 AM TOMBALL (281) 516-4120 (@ACADEMY)
Sat Jan 16, 2016 10:00 AM CALDWELL (713) 553-9458 (dowlingrd@aol.com)
Sun Jan 24, 2016 9:30 AM TOMBALL (281) 516-4120 (@ACADEMY)
Sat Feb 20, 2016 9:00 AM TOMBALL (281) 516-4120 (@ACADEMY)
Sat Feb 27, 2016 9:00 AM TOMBALL (281) 516-4120 (@ACADEMY)
Updated 5:03 p.m. Friday, August 28, 2015

Student Classes in Spanish

Student Classes in Spanish (10)
Updated 5:03 p.m. Friday, August 28, 2015
Scheduled DateTimeCityPhoneNote
Sat Aug 29, 2015 4:00 PM BAYTOWN (832) 866-0112 (SPANISH CONT 8-30)
Sun Aug 30, 2015 8:00 AM PALMVIEW (956) 583-8372 (SPANISH czamarron1981@gmail.com @Palmview Public Safety B)
Sun Sep 20, 2015 12:00 PM AUSTIN (512) 389-4901 (SPANISH CONT 9-27 maria.araujo@tpwd.texas.gov)
Sat Sep 26, 2015 9:00 AM PASADENA (713) 301-3943 (SPANISH CONT 09-27-15)
Sat Sep 26, 2015 10:00 AM PASADENA (713) 301-3943 (SPANISH CONT 9-27 (11A-5P))
Sat Sep 26, 2015 12:00 PM SAN ANTONIO (512) 389-4901 (SPANISH maria.araujo@tpwd.texas.gov)
Sat Oct 3, 2015 7:30 AM ATHENS (903) 676-2277 (SPANISH)
Sat Oct 24, 2015 10:00 AM PASADENA (713) 301-3943 (SPANISH)
Sat Nov 28, 2015 10:00 AM PASADENA (713) 301-3943 (SPANISH)
Wed Dec 16, 2015 6:00 PM CORPUS CHRISTI (361) 853-8644 (SPANISH ARRANGEMENTS TO BE MADE CONTACT INSTRUCTOR)
Updated 5:03 p.m. Friday, August 28, 2015

Student Classes for the Hearing Impaired

Please select a course from the general listing and contact the instructor to request an ASL interpreter. TPWD requires a minimum of four weeks notice to contract an ASL interpreter for the course. If TPWD contracts an interpreter and the student is unable to attend, the student must give 24 hours advance notice.

Student Classes for the Hearing Impaired (0)
Updated 5:03 p.m. Friday, August 28, 2015
No Classes Scheduled
Updated 5:03 p.m. Friday, August 28, 2015

Hunter Instructor Classes

Hunter Instructor Classes (2)
Updated 5:03 p.m. Friday, August 28, 2015
Scheduled DateTimeCityPhoneNote
Sun Sep 13, 2015 9:00 AM EL PASO (915) 637-5225 (CAN ALSO CALL 915/594-0159)
Sat Feb 6, 2016 8:00 AM CORPUS CHRISTI (361) 853-8644  
Updated 5:03 p.m. Friday, August 28, 2015

Student Bowhunting Classes

Student Bowhunting Classes (3)
Updated 5:03 p.m. Friday, August 28, 2015
Scheduled DateTimeCityPhoneNote
Sat Aug 29, 2015 7:30 AM ATHENS (903) 676-2277  
Sat Sep 19, 2015 7:30 AM ARANSAS PASS (361) 222-1152  
Sun Sep 20, 2015 7:30 AM ARANSAS PASS (361) 222-1152  
Updated 5:03 p.m. Friday, August 28, 2015

Student Bowhunting Field Classes

Student Bowhunting Field Classes (0)
Updated 5:03 p.m. Friday, August 28, 2015
No Classes Scheduled
Updated 5:03 p.m. Friday, August 28, 2015

Bowhunter Instructor Classes

Bowhunter Instructor Classes (0)
Updated 5:03 p.m. Friday, August 28, 2015
No Classes Scheduled
Updated 5:03 p.m. Friday, August 28, 2015


Back to Top
Back to Top